Content
SEND FEEDBACK

Daily
Averages
Monthly
Summary
Canada

DRUMHELLER, ALBERTA


Home > North America > Canada > Alberta
Elevation: 2254 feet     Latitude: 51 28N     Longitude: 112 43W

WEATHER
 
SELECT A DAY
Number of Records: 138,142;   Date Range: 1/1/95 - 8/31/14
 
SHARE

PRINT THIS DATA

[ ← Previous Day ]
WEATHER ALMANAC - MARCH 17, 2013
[ Next Day → ]
[ °C ]   °F
Weather ElementAverageHighLow
Temperature8.6 °F13.5 °F (4:00 pm)-0.4 °F (11:00 pm)
Dewpoint0.3 °F6.8 °F (12:00 am)-7.4 °F (11:00 pm)
Humidity68 %83 % (2:00 am)41 % (6:00 pm)
Barometer29.99 in30.12 in (9:00 pm)29.79 in (2:00 am)
Wind Speed8.4 mph15 mph (1:00 pm)
Weather ElementAverage
Wind DirectionWSW (243 °)

Weather ElementTotal
Precipitation---
Heating Degree Days58.5 (Base 65)
Averaged from 27 records on March 17, 2013
WEATHER CONDITIONS BREAKOUT
WIND DIRECTION BREAKOUT
WEATHER BY HOUR - MARCH 17, 2013
[ °C ]   °F
Local TimeTemperatureDewpointHumidityBarometerVisibilityWind DirectionWind SpeedGust SpeedPrecipitationEventsConditions
12:00 AM12.7 °F6.8 °F77 %29.81 inNNE (20°)3.5 mph
1:00 AM11.1 °F6.3 °F81 %29.80 inNE (40°)10.4 mph
2:00 AM10.9 °F6.6 °F83 %29.79 inNW (310°)3.5 mph
3:00 AM9.9 °F5.0 °F81 %29.80 inNorth (360°)6.9 mph
4:00 AM9.3 °F3.9 °F79 %29.83 inNorth (350°)10.4 mph
5:00 AM9.0 °F2.8 °F76 %29.83 inNorth (360°)11.5 mph
6:00 AM8.2 °F1.6 °F74 %29.87 inNorth (10°)11.5 mph
6:00 AM8.0 °F2.0 °F64 %29.87 inNorth (10°)11.5 mph
7:00 AM6.8 °F-0.4 °F72 %29.91 inNorth (350°)9.2 mph
8:00 AM5.5 °F-1.5 °F73 %29.94 inNNW (340°)8.1 mph
9:00 AM5.5 °F-2.4 °F70 %29.97 inNNW (340°)8.1 mph
10:00 AM7.0 °F-1.7 °F68 %30.01 inNNW (340°)9.2 mph
11:00 AM9.7 °F-0.4 °F64 %30.02 inNorth (360°)13.8 mph
12:00 PM9.7 °F0.9 °F68 %30.04 inNorth (10°)13.8 mph
12:00 PM10.0 °F1.0 °F53 %30.04 inNorth (10°)13.8 mph
1:00 PM10.2 °F0.9 °F66 %30.05 inNorth (360°)15.0 mph
2:00 PM10.8 °F1.2 °F65 %30.06 inNorth (360°)12.7 mph
3:00 PM11.1 °F1.8 °F66 %30.06 inNorth (360°)11.5 mph
4:00 PM13.5 °F1.2 °F58 %30.08 inNorth (360°)8.1 mph
5:00 PM12.7 °F-0.4 °F56 %30.10 inNNW (330°)6.9 mph
6:00 PM11.8 °F-0.9 °F57 %30.10 inNNW (340°)3.5 mph
6:00 PM12.0 °F-1.0 °F41 %30.10 inNNW (340°)3.5 mph
7:00 PM9.3 °F-1.8 °F61 %30.11 inWSW (240°)3.5 mph
8:00 PM5.4 °F-3.3 °F68 %30.11 inSSW (210°)1.2 mph
9:00 PM1.4 °F-6.0 °F71 %30.12 inSSE (160°)4.6 mph
10:00 PM0.7 °F-6.3 °F72 %30.11 inSE (140°)5.8 mph
11:00 PM-0.4 °F-7.4 °F72 %30.09 inSSE (150°)5.8 mph
Hourly data recorded from CWDZ, located miles away from Drumheller, Alberta







STORIES FROM OUR PARTNERS